FFT1234 KPBI-KTPA

Flight info

Callsign FFT1234
Flight time 0h 36m
Altitude 20000
Route OLAKE3 JAYMC BLFRG3
Aircraft A321/M-SDE3FGHIRWY/LB1

Departure

Time 2026-05-04 18:41
Airport Palm Beach International Airport (KPBI)

Arrival

Time 2026-05-04 19:17
Airport Tampa International Airport (KTPA)
Time Latitude Longitude Altitude Speed Heading
2026-05-04 18:26 26.68520 -80.08933 30 ft 0 kts
2026-05-04 18:31 26.68502 -80.08934 29 ft 3 kts
2026-05-04 18:32 26.68483 -80.08935 29 ft 3 kts
2026-05-04 18:32 26.68464 -80.08936 28 ft 3 kts
2026-05-04 18:32 26.68445 -80.08933 29 ft 3 kts 331°
2026-05-04 18:32 26.68431 -80.08922 27 ft 0 kts 305°
2026-05-04 18:36 26.68445 -80.08964 28 ft 12 kts 279°
2026-05-04 18:36 26.68447 -80.09062 26 ft 12 kts 258°
2026-05-04 18:36 26.68387 -80.09102 27 ft 10 kts 195°
2026-05-04 18:36 26.68361 -80.09168 26 ft 12 kts 269°
2026-05-04 18:37 26.68363 -80.09264 25 ft 16 kts 273°
2026-05-04 18:37 26.68370 -80.09404 25 ft 17 kts 272°
2026-05-04 18:37 26.68375 -80.09546 25 ft 22 kts 272°
2026-05-04 18:37 26.68383 -80.09721 25 ft 22 kts 273°
2026-05-04 18:38 26.68391 -80.09886 25 ft 20 kts 272°
2026-05-04 18:38 26.68397 -80.10037 25 ft 19 kts 272°
2026-05-04 18:38 26.68404 -80.10203 25 ft 25 kts 272°
2026-05-04 18:38 26.68412 -80.10395 25 ft 24 kts 273°
2026-05-04 18:39 26.68421 -80.10581 25 ft 23 kts 273°
2026-05-04 18:39 26.68428 -80.10725 25 ft 13 kts 273°
2026-05-04 18:39 26.68428 -80.10790 25 ft 0 kts 260°
2026-05-04 18:39 26.68428 -80.10791 25 ft 2 kts 260°
2026-05-04 18:40 26.68389 -80.10820 27 ft 12 kts 190°
2026-05-04 18:40 26.68319 -80.10755 25 ft 15 kts 100°
2026-05-04 18:40 26.68310 -80.10585 25 ft 41 kts 93°
2026-05-04 18:40 26.68283 -80.09945 26 ft 120 kts 92°
2026-05-04 18:41 26.68233 -80.08791 151 ft 167 kts 91°
2026-05-04 18:41 26.68182 -80.07524 1095 ft 160 kts 88°
2026-05-04 18:41 26.68143 -80.06278 2022 ft 161 kts 87°
2026-05-04 18:41 26.68279 -80.05045 2436 ft 165 kts 71°
2026-05-04 18:42 26.68794 -80.03832 2582 ft 181 kts 60°
2026-05-04 18:42 26.69421 -80.02534 2725 ft 198 kts 62°
2026-05-04 18:42 26.70098 -80.01107 2848 ft 219 kts 61°
2026-05-04 18:42 26.70881 -79.99551 3090 ft 240 kts 53°
2026-05-04 18:43 26.72072 -79.98203 3715 ft 247 kts 36°
2026-05-04 18:43 26.73610 -79.97318 4424 ft 253 kts 18°
2026-05-04 18:43 26.75365 -79.96933 5097 ft 260 kts
2026-05-04 18:43 26.77190 -79.96925 5725 ft 268 kts 347°
2026-05-04 18:44 26.78858 -79.97821 6354 ft 275 kts 320°
2026-05-04 18:44 26.79329 -79.98320 6581 ft 276 kts 310°
2026-05-04 18:44 26.80675 -80.01550 7752 ft 277 kts 288°
2026-05-04 18:44 26.81296 -80.03588 8578 ft 275 kts 287°
2026-05-04 18:45 26.81914 -80.05608 9399 ft 274 kts 287°
2026-05-04 18:45 26.82536 -80.07630 10122 ft 276 kts 287°
2026-05-04 18:45 26.83175 -80.09711 10430 ft 293 kts 287°
2026-05-04 18:45 26.83860 -80.11949 10554 ft 314 kts 287°
2026-05-04 18:46 26.84594 -80.14338 10689 ft 334 kts 287°
2026-05-04 18:46 26.85364 -80.16834 10988 ft 343 kts 287°
2026-05-04 18:46 26.86137 -80.19324 11064 ft 343 kts 287°
2026-05-04 18:46 26.86932 -80.21889 11077 ft 343 kts 287°
2026-05-04 18:47 26.87709 -80.24403 11426 ft 347 kts 287°
2026-05-04 18:47 26.88496 -80.26967 12134 ft 348 kts 287°
2026-05-04 18:47 26.89281 -80.29532 12826 ft 349 kts 287°
2026-05-04 18:47 26.90074 -80.32120 13471 ft 351 kts 287°
2026-05-04 18:48 26.90869 -80.34708 14069 ft 353 kts 287°
2026-05-04 18:48 26.91517 -80.37361 14574 ft 353 kts 278°
2026-05-04 18:48 26.91824 -80.40100 15101 ft 355 kts 275°
2026-05-04 18:48 26.92112 -80.42824 15611 ft 357 kts 275°
2026-05-04 18:49 26.92408 -80.45593 16126 ft 359 kts 276°
2026-05-04 18:49 26.92709 -80.48381 16629 ft 361 kts 276°
2026-05-04 18:49 26.93013 -80.51187 17123 ft 363 kts 275°
2026-05-04 18:49 26.93315 -80.54005 17605 ft 365 kts 275°
2026-05-04 18:50 26.93621 -80.56838 18091 ft 367 kts 275°
2026-05-04 18:50 26.93930 -80.59687 18530 ft 369 kts 275°
2026-05-04 18:50 26.94239 -80.62546 18925 ft 371 kts 275°
2026-05-04 18:50 26.94442 -80.64452 19196 ft 372 kts 275°
2026-05-04 18:51 26.94747 -80.67345 19581 ft 374 kts 275°
2026-05-04 18:51 26.95055 -80.70248 19944 ft 377 kts 275°
2026-05-04 18:51 26.95365 -80.73173 20041 ft 380 kts 275°
2026-05-04 18:51 26.95681 -80.76136 20062 ft 385 kts 275°
2026-05-04 18:52 26.95965 -80.79132 20068 ft 386 kts 274°
2026-05-04 18:52 26.96142 -80.82064 20059 ft 386 kts 272°
2026-05-04 18:52 26.96254 -80.85067 20059 ft 386 kts 271°
2026-05-04 18:52 26.96332 -80.88075 20058 ft 386 kts 271°
2026-05-04 18:53 26.96404 -80.91044 20055 ft 386 kts 271°
2026-05-04 18:53 26.96487 -80.94055 20057 ft 386 kts 271°
2026-05-04 18:53 26.96586 -80.97065 20055 ft 386 kts 271°
2026-05-04 18:53 26.96695 -81.00039 20056 ft 387 kts 271°
2026-05-04 18:54 26.96812 -81.03048 20063 ft 387 kts 271°
2026-05-04 18:54 26.96932 -81.06062 20060 ft 387 kts 271°
2026-05-04 18:54 26.97053 -81.09080 20063 ft 387 kts 271°
2026-05-04 18:54 26.97174 -81.12098 20062 ft 387 kts 271°
2026-05-04 18:55 26.97290 -81.15114 20061 ft 387 kts 271°
2026-05-04 18:55 26.97514 -81.21148 20055 ft 387 kts 271°
2026-05-04 18:55 26.97625 -81.24158 20057 ft 387 kts 271°
2026-05-04 18:56 26.97735 -81.27173 20064 ft 387 kts 271°
2026-05-04 18:56 26.97843 -81.30183 20060 ft 387 kts 271°
2026-05-04 18:56 26.97950 -81.33194 20057 ft 387 kts 271°
2026-05-04 18:56 26.98077 -81.36166 20053 ft 387 kts 274°
2026-05-04 18:57 26.98572 -81.39176 20067 ft 388 kts 282°
2026-05-04 18:57 26.99215 -81.42075 20055 ft 388 kts 282°
2026-05-04 18:57 26.99862 -81.45014 20053 ft 389 kts 282°
2026-05-04 18:57 27.00508 -81.47957 20059 ft 389 kts 282°
2026-05-04 18:58 27.01155 -81.50908 20059 ft 389 kts 282°
2026-05-04 18:58 27.01797 -81.53853 20066 ft 389 kts 282°
2026-05-04 18:58 27.02439 -81.56805 20061 ft 389 kts 282°
2026-05-04 18:58 27.03080 -81.59759 20070 ft 389 kts 282°
2026-05-04 18:59 27.03716 -81.62692 19939 ft 383 kts 282°
2026-05-04 18:59 27.04336 -81.65543 19709 ft 371 kts 282°
2026-05-04 18:59 27.04935 -81.68298 19477 ft 365 kts 282°
2026-05-04 18:59 27.05539 -81.71089 19246 ft 362 kts 282°
2026-05-04 19:00 27.06123 -81.73800 19020 ft 361 kts 282°
2026-05-04 19:00 27.06712 -81.76536 18792 ft 360 kts 282°
2026-05-04 19:00 27.07301 -81.79265 18566 ft 359 kts 282°
2026-05-04 19:00 27.08084 -81.81914 18339 ft 357 kts 292°
2026-05-04 19:01 27.09363 -81.84262 18087 ft 351 kts 304°
2026-05-04 19:01 27.11067 -81.86209 17823 ft 348 kts 316°
2026-05-04 19:01 27.12990 -81.87829 17571 ft 341 kts 318°
2026-05-04 19:01 27.14870 -81.89406 17318 ft 332 kts 318°
2026-05-04 19:02 27.16700 -81.90951 17068 ft 325 kts 318°
2026-05-04 19:02 27.18486 -81.92461 16817 ft 318 kts 318°
2026-05-04 19:02 27.20239 -81.93942 16565 ft 312 kts 318°
2026-05-04 19:02 27.21936 -81.95378 16326 ft 308 kts 318°
2026-05-04 19:03 27.23645 -81.96827 16080 ft 306 kts 318°
2026-05-04 19:03 27.25343 -81.98265 15796 ft 302 kts 318°
2026-05-04 19:03 27.27018 -81.99688 15409 ft 302 kts 318°
2026-05-04 19:03 27.28698 -82.01119 15008 ft 303 kts 319°
2026-05-04 19:04 27.30381 -82.02555 14584 ft 305 kts 319°
2026-05-04 19:04 27.32077 -82.03999 14191 ft 305 kts 319°
2026-05-04 19:04 27.33748 -82.05418 13835 ft 303 kts 320°
2026-05-04 19:04 27.35407 -82.06821 13325 ft 293 kts 319°
2026-05-04 19:05 27.37035 -82.08201 12916 ft 294 kts 319°
2026-05-04 19:05 27.38640 -82.09627 12498 ft 294 kts 317°
2026-05-04 19:05 27.40217 -82.11089 12080 ft 294 kts 317°
2026-05-04 19:05 27.41789 -82.12570 11666 ft 295 kts 317°
2026-05-04 19:06 27.43365 -82.14059 11238 ft 297 kts 317°
2026-05-04 19:06 27.44930 -82.15576 11003 ft 292 kts 315°
2026-05-04 19:06 27.46402 -82.17138 11004 ft 291 kts 313°
2026-05-04 19:06 27.47843 -82.18736 10938 ft 291 kts 312°
2026-05-04 19:07 27.49273 -82.20340 10281 ft 289 kts 312°
2026-05-04 19:07 27.50704 -82.21941 9515 ft 289 kts 312°
2026-05-04 19:07 27.52117 -82.23511 9082 ft 285 kts 313°
2026-05-04 19:07 27.53535 -82.25079 8987 ft 284 kts 313°
2026-05-04 19:08 27.54954 -82.26639 9001 ft 285 kts 313°
2026-05-04 19:08 27.56360 -82.28183 9002 ft 285 kts 313°
2026-05-04 19:08 27.57784 -82.29743 9002 ft 285 kts 313°
2026-05-04 19:08 27.59213 -82.31307 8995 ft 285 kts 313°
2026-05-04 19:09 27.60647 -82.32876 8569 ft 292 kts 313°
2026-05-04 19:09 27.62102 -82.34470 7787 ft 290 kts 314°
2026-05-04 19:09 27.63549 -82.36055 7041 ft 291 kts 315°
2026-05-04 19:09 27.64996 -82.37645 6291 ft 289 kts 316°
2026-05-04 19:10 27.66430 -82.39221 5626 ft 283 kts 316°
2026-05-04 19:10 27.67789 -82.40756 5243 ft 269 kts 310°
2026-05-04 19:10 27.68750 -82.42499 4925 ft 262 kts 293°
2026-05-04 19:10 27.69194 -82.44451 4621 ft 251 kts 276°
2026-05-04 19:11 27.69269 -82.46363 4276 ft 236 kts 279°
2026-05-04 19:11 27.69947 -82.47958 4046 ft 224 kts 316°
2026-05-04 19:11 27.71230 -82.48830 3785 ft 213 kts 340°
2026-05-04 19:11 27.72557 -82.49475 3513 ft 202 kts 339°
2026-05-04 19:12 27.73820 -82.50101 3294 ft 195 kts 340°
2026-05-04 19:12 27.76275 -82.51321 2994 ft 192 kts 340°
2026-05-04 19:12 27.77500 -82.51932 2989 ft 192 kts 340°
2026-05-04 19:13 27.78723 -82.52540 2993 ft 192 kts 339°
2026-05-04 19:13 27.79949 -82.53149 3013 ft 192 kts 340°
2026-05-04 19:13 27.81153 -82.53747 2995 ft 192 kts 340°
2026-05-04 19:13 27.82382 -82.54349 2752 ft 191 kts 343°
2026-05-04 19:14 27.83677 -82.54619 2483 ft 189 kts
2026-05-04 19:14 27.84986 -82.54613 2236 ft 189 kts
2026-05-04 19:14 27.86295 -82.54575 1985 ft 189 kts
2026-05-04 19:14 27.87604 -82.54532 1721 ft 186 kts
2026-05-04 19:15 27.88870 -82.54490 1458 ft 176 kts
2026-05-04 19:15 27.90034 -82.54451 1245 ft 158 kts
2026-05-04 19:15 27.91110 -82.54414 1059 ft 151 kts
2026-05-04 19:15 27.92150 -82.54378 870 ft 147 kts
2026-05-04 19:16 27.93174 -82.54345 665 ft 145 kts
2026-05-04 19:16 27.94189 -82.54320 426 ft 149 kts
2026-05-04 19:16 27.95226 -82.54275 269 ft 150 kts
2026-05-04 19:16 27.96270 -82.54240 94 ft 149 kts
2026-05-04 19:17 27.97259 -82.54209 49 ft 131 kts
2026-05-04 19:17 27.97925 -82.54180 48 ft 54 kts
2026-05-04 19:17 27.98130 -82.54171 48 ft 23 kts
2026-05-04 19:17 27.98256 -82.54120 49 ft 14 kts 53°
2026-05-04 19:18 27.98240 -82.54057 48 ft 8 kts 150°
2026-05-04 19:18 27.98189 -82.54049 48 ft 7 kts 182°
2026-05-04 19:18 27.98141 -82.54051 47 ft 7 kts 182°
2026-05-04 19:18 27.98076 -82.54052 47 ft 11 kts 173°
2026-05-04 19:19 27.98041 -82.53995 47 ft 9 kts 93°
2026-05-04 19:19 27.97991 -82.53973 46 ft 11 kts 180°
2026-05-04 19:19 27.97915 -82.53955 45 ft 8 kts 126°
2026-05-04 19:19 27.97920 -82.53898 43 ft 3 kts 71°
2026-05-04 19:20 27.97922 -82.53891 43 ft 0 kts 71°